Year,Month,Day,Hour,Minute,Value (Times are PST for temperature in C)
2009,07,30,00,00,17.70
2009,07,30,00,01,17.80
2009,07,30,00,02,17.90
2009,07,30,00,03,18.00
2009,07,30,00,04,18.20
2009,07,30,00,05,18.30
2009,07,30,00,06,18.40
2009,07,30,00,07,18.50
2009,07,30,00,08,18.60
2009,07,30,00,09,18.80
2009,07,30,00,10,18.90
2009,07,30,00,11,19.00
2009,07,30,00,12,19.10
2009,07,30,00,13,19.20
2009,07,30,00,14,19.30
2009,07,30,00,15,19.30
2009,07,30,00,16,19.20
2009,07,30,00,17,19.10
2009,07,30,00,18,19.10
2009,07,30,00,19,19.10
2009,07,30,00,20,19.10
2009,07,30,00,21,19.10
2009,07,30,00,22,19.10
2009,07,30,00,23,19.10
2009,07,30,00,24,19.10
2009,07,30,00,25,19.10
2009,07,30,00,26,19.10
2009,07,30,00,27,19.00
2009,07,30,00,28,18.90
2009,07,30,00,29,18.90
2009,07,30,00,30,18.80
2009,07,30,00,31,18.70
2009,07,30,00,32,18.50
2009,07,30,00,33,18.40
2009,07,30,00,34,18.40
2009,07,30,00,35,18.30
2009,07,30,00,36,18.20
2009,07,30,00,37,18.20
2009,07,30,00,38,18.20
2009,07,30,00,39,18.20
2009,07,30,00,40,18.20
2009,07,30,00,41,18.20
2009,07,30,00,42,18.30
2009,07,30,00,43,18.40
2009,07,30,00,44,18.40
2009,07,30,00,45,18.50
2009,07,30,00,46,18.60
2009,07,30,00,47,18.70
2009,07,30,00,48,18.90
2009,07,30,00,49,19.20
2009,07,30,00,50,19.40
2009,07,30,00,51,19.60
2009,07,30,00,52,19.80
2009,07,30,00,53,20.00
2009,07,30,00,54,20.20
2009,07,30,00,55,20.30
2009,07,30,00,56,20.50
2009,07,30,00,57,20.70
2009,07,30,00,58,20.90
2009,07,30,00,59,21.00
2009,07,30,01,00,21.10
2009,07,30,01,01,21.20
2009,07,30,01,02,21.20
2009,07,30,01,03,21.00
2009,07,30,01,04,20.60
2009,07,30,01,05,20.00
2009,07,30,01,06,19.60
2009,07,30,01,07,19.40
2009,07,30,01,08,19.10
2009,07,30,01,09,18.80
2009,07,30,01,10,18.40
2009,07,30,01,11,18.20
2009,07,30,01,12,18.00
2009,07,30,01,13,17.70
2009,07,30,01,14,17.40
2009,07,30,01,15,17.10
2009,07,30,01,16,16.80
2009,07,30,01,17,16.60
2009,07,30,01,18,16.50
2009,07,30,01,19,16.40
2009,07,30,01,20,16.30
2009,07,30,01,21,16.20
2009,07,30,01,22,16.10
2009,07,30,01,23,16.10
2009,07,30,01,24,16.10
2009,07,30,01,25,16.10
2009,07,30,01,26,16.20
2009,07,30,01,27,16.20
2009,07,30,01,28,16.30
2009,07,30,01,29,16.40
2009,07,30,01,30,16.40
2009,07,30,01,31,16.60
2009,07,30,01,32,16.70
2009,07,30,01,33,16.80
2009,07,30,01,34,16.90
2009,07,30,01,35,17.00
2009,07,30,01,36,17.10
2009,07,30,01,37,17.20
2009,07,30,01,38,17.20
2009,07,30,01,39,17.20
2009,07,30,01,40,17.10
2009,07,30,01,41,17.00
2009,07,30,01,42,16.80
2009,07,30,01,43,16.70
2009,07,30,01,44,16.60
2009,07,30,01,45,16.40
2009,07,30,01,46,16.30
2009,07,30,01,47,16.20
2009,07,30,01,48,16.10
2009,07,30,01,49,15.90
2009,07,30,01,50,15.80
2009,07,30,01,51,15.70
2009,07,30,01,52,15.70
2009,07,30,01,53,15.60
2009,07,30,01,54,15.60
2009,07,30,01,55,15.60
2009,07,30,01,56,15.50
2009,07,30,01,57,15.50
2009,07,30,01,58,15.50
2009,07,30,01,59,15.50
2009,07,30,02,00,15.50
2009,07,30,02,01,15.40
2009,07,30,02,02,15.40
2009,07,30,02,03,15.30
2009,07,30,02,04,15.30
2009,07,30,02,05,15.30
2009,07,30,02,06,15.20
2009,07,30,02,07,15.20
2009,07,30,02,08,15.20
2009,07,30,02,09,15.20
2009,07,30,02,10,15.20
2009,07,30,02,11,15.10
2009,07,30,02,12,15.10
2009,07,30,02,13,15.20
2009,07,30,02,14,15.20
2009,07,30,02,15,15.30
2009,07,30,02,16,15.30
2009,07,30,02,17,15.40
2009,07,30,02,18,15.50
2009,07,30,02,19,15.60
2009,07,30,02,20,15.70
2009,07,30,02,21,15.80
2009,07,30,02,22,15.90
2009,07,30,02,23,16.00
2009,07,30,02,24,16.10
2009,07,30,02,25,16.30
2009,07,30,02,26,16.40
2009,07,30,02,27,16.50
2009,07,30,02,28,16.60
2009,07,30,02,29,16.60
2009,07,30,02,30,16.70
2009,07,30,02,31,16.70
2009,07,30,02,32,16.70
2009,07,30,02,33,16.70
2009,07,30,02,34,16.60
2009,07,30,02,35,16.60
2009,07,30,02,36,16.40
2009,07,30,02,37,16.40
2009,07,30,02,38,16.40
2009,07,30,02,39,16.30
2009,07,30,02,40,16.30
2009,07,30,02,41,16.20
2009,07,30,02,42,16.20
2009,07,30,02,43,16.20
2009,07,30,02,44,16.10
2009,07,30,02,45,16.00
2009,07,30,02,46,15.90
2009,07,30,02,47,15.80
2009,07,30,02,48,15.80
2009,07,30,02,49,15.80
2009,07,30,02,50,15.70
2009,07,30,02,51,15.70
2009,07,30,02,52,15.60
2009,07,30,02,53,15.60
2009,07,30,02,54,15.60
2009,07,30,02,55,15.60
2009,07,30,02,56,15.50
2009,07,30,02,57,15.50
2009,07,30,02,58,15.50
2009,07,30,02,59,15.50
2009,07,30,03,00,15.50
2009,07,30,03,01,15.50
2009,07,30,03,02,15.50
2009,07,30,03,03,15.50
2009,07,30,03,04,15.60
2009,07,30,03,05,15.70
2009,07,30,03,06,15.70
2009,07,30,03,07,15.80
2009,07,30,03,08,15.80
2009,07,30,03,09,15.90
2009,07,30,03,10,15.90
2009,07,30,03,11,16.00
2009,07,30,03,12,16.10
2009,07,30,03,13,16.10
2009,07,30,03,14,16.10
2009,07,30,03,15,16.10
2009,07,30,03,16,16.10
2009,07,30,03,17,16.00
2009,07,30,03,18,15.90
2009,07,30,03,19,15.80
2009,07,30,03,20,15.80
2009,07,30,03,21,15.70
2009,07,30,03,22,15.60
2009,07,30,03,23,15.50
2009,07,30,03,24,15.40
2009,07,30,03,25,15.40
2009,07,30,03,26,15.30
2009,07,30,03,27,15.30
2009,07,30,03,28,15.30
2009,07,30,03,29,15.20
2009,07,30,03,30,15.20
2009,07,30,03,31,15.20
2009,07,30,03,32,15.20
2009,07,30,03,33,15.10
2009,07,30,03,34,15.10
2009,07,30,03,35,15.10
2009,07,30,03,36,15.10
2009,07,30,03,37,15.00
2009,07,30,03,38,15.00
2009,07,30,03,39,15.00
2009,07,30,03,40,15.00
2009,07,30,03,41,14.90
2009,07,30,03,42,14.90
2009,07,30,03,43,14.90
2009,07,30,03,44,14.80
2009,07,30,03,45,14.80
2009,07,30,03,46,14.80
2009,07,30,03,47,14.80
2009,07,30,03,48,14.80
2009,07,30,03,49,14.80
2009,07,30,03,50,14.80
2009,07,30,03,51,14.80
2009,07,30,03,52,14.80
2009,07,30,03,53,14.80
2009,07,30,03,54,14.80
2009,07,30,03,55,14.90
2009,07,30,03,56,14.90
2009,07,30,03,57,15.00
2009,07,30,03,58,15.10
2009,07,30,03,59,15.10
2009,07,30,04,00,15.20
2009,07,30,04,01,15.30
2009,07,30,04,02,15.30
2009,07,30,04,03,15.40
2009,07,30,04,04,15.40
2009,07,30,04,05,15.50
2009,07,30,04,06,15.60
2009,07,30,04,07,15.60
2009,07,30,04,08,15.70
2009,07,30,04,09,15.70
2009,07,30,04,10,15.80
2009,07,30,04,11,15.80
2009,07,30,04,12,15.80
2009,07,30,04,13,15.80
2009,07,30,04,14,15.90
2009,07,30,04,15,15.90
2009,07,30,04,16,15.90
2009,07,30,04,17,16.00
2009,07,30,04,18,16.10
2009,07,30,04,19,16.10
2009,07,30,04,20,16.10
2009,07,30,04,21,16.10
2009,07,30,04,22,16.10
2009,07,30,04,23,16.10
2009,07,30,04,24,16.10
2009,07,30,04,25,16.20
2009,07,30,04,26,16.20
2009,07,30,04,27,16.20
2009,07,30,04,28,16.30
2009,07,30,04,29,16.30
2009,07,30,04,30,16.30
2009,07,30,04,31,16.30
2009,07,30,04,32,16.30
2009,07,30,04,33,16.30
2009,07,30,04,34,16.40
2009,07,30,04,35,16.40
2009,07,30,04,36,16.40
2009,07,30,04,37,16.40
2009,07,30,04,38,16.40
2009,07,30,04,39,16.60
2009,07,30,04,40,16.60
2009,07,30,04,41,16.70
2009,07,30,04,42,16.70
2009,07,30,04,43,16.70
2009,07,30,04,44,16.70
2009,07,30,04,45,16.80
2009,07,30,04,46,16.80
2009,07,30,04,47,16.80
2009,07,30,04,48,16.80
2009,07,30,04,49,16.80
2009,07,30,04,50,16.80
2009,07,30,04,51,16.80
2009,07,30,04,52,16.80
2009,07,30,04,53,16.80
2009,07,30,04,54,16.80
2009,07,30,04,55,16.80
2009,07,30,04,56,16.80
2009,07,30,04,57,16.80
2009,07,30,04,58,16.80
2009,07,30,04,59,16.80
2009,07,30,05,00,16.80
2009,07,30,05,01,16.90
2009,07,30,05,02,16.90
2009,07,30,05,03,16.90
2009,07,30,05,04,16.90
2009,07,30,05,05,16.90
2009,07,30,05,06,16.90
2009,07,30,05,07,16.90
2009,07,30,05,08,17.00
2009,07,30,05,09,17.00
2009,07,30,05,10,17.00
2009,07,30,05,11,17.00
2009,07,30,05,12,17.10
2009,07,30,05,13,17.10
2009,07,30,05,14,17.20
2009,07,30,05,15,17.20
2009,07,30,05,16,17.20
2009,07,30,05,17,17.30
2009,07,30,05,18,17.30
2009,07,30,05,19,17.30
2009,07,30,05,20,17.30
2009,07,30,05,21,17.40
2009,07,30,05,22,17.40
2009,07,30,05,23,17.40
2009,07,30,05,24,17.50
2009,07,30,05,25,17.50
2009,07,30,05,26,17.50
2009,07,30,05,27,17.50
2009,07,30,05,28,17.50
2009,07,30,05,29,17.60
2009,07,30,05,30,17.60
2009,07,30,05,31,17.60
2009,07,30,05,32,17.70
2009,07,30,05,33,17.70
2009,07,30,05,34,17.70
2009,07,30,05,35,17.80
2009,07,30,05,36,17.80
2009,07,30,05,37,17.80
2009,07,30,05,38,17.80
2009,07,30,05,39,17.80
2009,07,30,05,40,17.80
2009,07,30,05,41,17.80
2009,07,30,05,42,17.80
2009,07,30,05,43,17.80
2009,07,30,05,44,17.80
2009,07,30,05,45,17.80
2009,07,30,05,46,17.80
2009,07,30,05,47,17.80
2009,07,30,05,48,17.70
2009,07,30,05,49,17.70
2009,07,30,05,50,17.70
2009,07,30,05,51,17.70
2009,07,30,05,52,17.70
2009,07,30,05,53,17.70
2009,07,30,05,54,17.70
2009,07,30,05,55,17.70
2009,07,30,05,56,17.80
2009,07,30,05,57,17.80
2009,07,30,05,58,17.80
2009,07,30,05,59,17.80
2009,07,30,06,00,17.80
2009,07,30,06,01,17.90
2009,07,30,06,02,17.90
2009,07,30,06,03,17.90
2009,07,30,06,04,17.90
2009,07,30,06,05,17.90
2009,07,30,06,06,17.90
2009,07,30,06,07,17.90
2009,07,30,06,08,17.90
2009,07,30,06,09,17.90
2009,07,30,06,10,17.90
2009,07,30,06,11,17.90
2009,07,30,06,12,18.00
2009,07,30,06,13,18.10
2009,07,30,06,14,18.10
2009,07,30,06,15,18.10
2009,07,30,06,16,18.00
2009,07,30,06,17,17.90
2009,07,30,06,18,17.90
2009,07,30,06,19,17.80
2009,07,30,06,20,17.70
2009,07,30,06,21,17.60
2009,07,30,06,22,17.60
2009,07,30,06,23,17.50
2009,07,30,06,24,17.40
2009,07,30,06,25,17.40
2009,07,30,06,26,17.30
2009,07,30,06,27,17.30
2009,07,30,06,28,17.20
2009,07,30,06,29,17.00
2009,07,30,06,30,17.00
2009,07,30,06,31,16.90
2009,07,30,06,32,16.90
2009,07,30,06,33,16.90
2009,07,30,06,34,16.80
2009,07,30,06,35,16.70
2009,07,30,06,36,16.70
2009,07,30,06,37,16.70
2009,07,30,06,38,16.70
2009,07,30,06,39,16.60
2009,07,30,06,40,16.40
2009,07,30,06,41,16.40
2009,07,30,06,42,16.20
2009,07,30,06,43,16.10
2009,07,30,06,44,15.90
2009,07,30,06,45,15.80
2009,07,30,06,46,15.60
2009,07,30,06,47,15.40
2009,07,30,06,48,15.30
2009,07,30,06,49,15.20
2009,07,30,06,50,15.00
2009,07,30,06,51,14.80
2009,07,30,06,52,14.70
2009,07,30,06,53,14.60
2009,07,30,06,54,14.50
2009,07,30,06,55,14.50
2009,07,30,06,56,14.40
2009,07,30,06,57,14.30
2009,07,30,06,58,14.20
2009,07,30,06,59,14.20
2009,07,30,07,00,14.20
2009,07,30,07,01,14.10
2009,07,30,07,02,14.10
2009,07,30,07,03,14.10
2009,07,30,07,04,14.00
2009,07,30,07,05,14.00
2009,07,30,07,06,14.10
2009,07,30,07,07,14.10
2009,07,30,07,08,14.10
2009,07,30,07,09,14.10
2009,07,30,07,10,14.20
2009,07,30,07,11,14.20
2009,07,30,07,12,14.20
2009,07,30,07,13,14.20
2009,07,30,07,14,14.30
2009,07,30,07,15,14.30
2009,07,30,07,16,14.40
2009,07,30,07,17,14.40
2009,07,30,07,18,14.50
2009,07,30,07,19,14.50
2009,07,30,07,20,14.60
2009,07,30,07,21,14.60
2009,07,30,07,22,14.70
2009,07,30,07,23,14.80
2009,07,30,07,24,14.80
2009,07,30,07,25,14.90
2009,07,30,07,26,15.00
2009,07,30,07,27,15.10
2009,07,30,07,28,15.20
2009,07,30,07,29,15.30
2009,07,30,07,30,15.30
2009,07,30,07,31,15.40
2009,07,30,07,32,15.40
2009,07,30,07,33,15.50
2009,07,30,07,34,15.60
2009,07,30,07,35,15.60
2009,07,30,07,36,15.70
2009,07,30,07,37,15.80
2009,07,30,07,38,15.80
2009,07,30,07,39,15.80
2009,07,30,07,40,15.80
2009,07,30,07,41,15.80
2009,07,30,07,42,15.80
2009,07,30,07,43,15.80
2009,07,30,07,44,15.70
2009,07,30,07,45,15.60
2009,07,30,07,46,15.50
2009,07,30,07,47,15.30
2009,07,30,07,48,15.20
2009,07,30,07,49,15.00
2009,07,30,07,50,14.90
2009,07,30,07,51,14.80
2009,07,30,07,52,14.70
2009,07,30,07,53,14.70
2009,07,30,07,54,14.60
2009,07,30,07,55,14.60
2009,07,30,07,56,14.50
2009,07,30,07,57,14.50
2009,07,30,07,58,14.50
2009,07,30,07,59,14.50
2009,07,30,08,00,14.50
2009,07,30,08,01,14.50
2009,07,30,08,02,14.60
2009,07,30,08,03,14.60
2009,07,30,08,04,14.70
2009,07,30,08,05,14.80
2009,07,30,08,06,14.80
2009,07,30,08,07,14.90
2009,07,30,08,08,15.00
2009,07,30,08,09,15.00
2009,07,30,08,10,15.10
2009,07,30,08,11,15.10
2009,07,30,08,12,15.10
2009,07,30,08,13,15.20
2009,07,30,08,14,15.20
2009,07,30,08,15,15.20
2009,07,30,08,16,15.30
2009,07,30,08,17,15.30
2009,07,30,08,18,15.30
2009,07,30,08,19,15.30
2009,07,30,08,20,15.40
2009,07,30,08,21,15.40
2009,07,30,08,22,15.50
2009,07,30,08,23,15.50
2009,07,30,08,24,15.60
2009,07,30,08,25,15.60
2009,07,30,08,26,15.70
2009,07,30,08,27,15.80
2009,07,30,08,28,15.80
2009,07,30,08,29,15.90
2009,07,30,08,30,16.00
2009,07,30,08,31,16.10
2009,07,30,08,32,16.10
2009,07,30,08,33,16.10
2009,07,30,08,34,16.10
2009,07,30,08,35,16.10
2009,07,30,08,36,16.10
2009,07,30,08,37,16.10
2009,07,30,08,38,16.10
2009,07,30,08,39,16.10
2009,07,30,08,40,16.10
2009,07,30,08,41,16.10
2009,07,30,08,42,15.90
2009,07,30,08,43,15.90
2009,07,30,08,44,15.80
2009,07,30,08,45,15.80
2009,07,30,08,46,15.80
2009,07,30,08,47,15.90
2009,07,30,08,48,15.90
2009,07,30,08,49,16.00
2009,07,30,08,50,16.10
2009,07,30,08,51,16.10
2009,07,30,08,52,16.10
2009,07,30,08,53,16.10
2009,07,30,08,54,16.10
2009,07,30,08,55,16.10
2009,07,30,08,56,16.10
2009,07,30,08,57,16.10
2009,07,30,08,58,16.10
2009,07,30,08,59,16.10
2009,07,30,09,00,16.20
2009,07,30,09,01,16.30
2009,07,30,09,02,16.30
2009,07,30,09,03,16.30
2009,07,30,09,04,16.30
2009,07,30,09,05,16.30
2009,07,30,09,06,16.30
2009,07,30,09,07,16.30
2009,07,30,09,08,16.30
2009,07,30,09,09,16.30
2009,07,30,09,10,16.40
2009,07,30,09,11,16.40
2009,07,30,09,12,16.40
2009,07,30,09,13,16.40
2009,07,30,09,14,16.40
2009,07,30,09,15,16.40
2009,07,30,09,16,16.40
2009,07,30,09,17,16.50
2009,07,30,09,18,16.60
2009,07,30,09,19,16.70
2009,07,30,09,20,16.70
2009,07,30,09,21,16.70
2009,07,30,09,22,16.70
2009,07,30,09,23,16.70
2009,07,30,09,24,16.70
2009,07,30,09,25,16.70
2009,07,30,09,26,16.70
2009,07,30,09,27,16.70
2009,07,30,09,28,16.80
2009,07,30,09,29,16.80
2009,07,30,09,30,16.90
2009,07,30,09,31,16.90
2009,07,30,09,32,16.90
2009,07,30,09,33,17.00
2009,07,30,09,34,17.00
2009,07,30,09,35,17.10
2009,07,30,09,36,17.20
2009,07,30,09,37,17.30
2009,07,30,09,38,17.30
2009,07,30,09,39,17.30
2009,07,30,09,40,17.30
2009,07,30,09,41,17.30
2009,07,30,09,42,17.30
2009,07,30,09,43,17.30
2009,07,30,09,44,17.30
2009,07,30,09,45,17.20
2009,07,30,09,46,17.20
2009,07,30,09,47,17.10
2009,07,30,09,48,17.10
2009,07,30,09,49,17.10
2009,07,30,09,50,17.10
2009,07,30,09,51,17.20
2009,07,30,09,52,17.20
2009,07,30,09,53,17.20
2009,07,30,09,54,17.20
2009,07,30,09,55,17.20
2009,07,30,09,56,17.20
2009,07,30,09,57,17.10
2009,07,30,09,58,17.10
2009,07,30,09,59,17.00
2009,07,30,10,00,17.00
2009,07,30,10,01,16.90
2009,07,30,10,02,16.80
2009,07,30,10,03,16.70
2009,07,30,10,04,16.80
2009,07,30,10,05,16.80
2009,07,30,10,06,16.90
2009,07,30,10,07,16.80
2009,07,30,10,08,16.80
2009,07,30,10,09,16.80
2009,07,30,10,10,16.80
2009,07,30,10,11,16.80
2009,07,30,10,12,16.80
2009,07,30,10,13,16.80
2009,07,30,10,14,16.90
2009,07,30,10,15,16.90
2009,07,30,10,16,16.80
2009,07,30,10,17,16.80
2009,07,30,10,18,16.80
2009,07,30,10,19,16.80
2009,07,30,10,20,16.80
2009,07,30,10,21,16.90
2009,07,30,10,22,16.90
2009,07,30,10,23,16.90
2009,07,30,10,24,17.00
2009,07,30,10,25,17.20
2009,07,30,10,26,17.30
2009,07,30,10,27,17.30
2009,07,30,10,28,17.30
2009,07,30,10,29,17.40
2009,07,30,10,30,17.40
2009,07,30,10,31,17.40
2009,07,30,10,32,17.50
2009,07,30,10,33,17.50
2009,07,30,10,34,17.50
2009,07,30,10,35,17.50
2009,07,30,10,36,17.50
2009,07,30,10,37,17.60
2009,07,30,10,38,17.60
2009,07,30,10,39,17.70
2009,07,30,10,40,17.80
2009,07,30,10,41,17.80
2009,07,30,10,42,17.80
2009,07,30,10,43,17.90
2009,07,30,10,44,18.00
2009,07,30,10,45,18.10
2009,07,30,10,46,18.20
2009,07,30,10,47,18.20
2009,07,30,10,48,18.20
2009,07,30,10,49,18.20
2009,07,30,10,50,18.30
2009,07,30,10,51,18.30
2009,07,30,10,52,18.30
2009,07,30,10,53,18.30
2009,07,30,10,54,18.30
2009,07,30,10,55,18.40
2009,07,30,10,56,18.40
2009,07,30,10,57,18.50
2009,07,30,10,58,18.50
2009,07,30,10,59,18.60
2009,07,30,11,00,18.70
2009,07,30,11,01,18.80
2009,07,30,11,02,18.80
2009,07,30,11,03,18.80
2009,07,30,11,04,18.80
2009,07,30,11,05,18.90
2009,07,30,11,06,18.90
2009,07,30,11,07,19.00
2009,07,30,11,08,19.10
2009,07,30,11,09,19.10
2009,07,30,11,10,19.10
2009,07,30,11,11,19.10
2009,07,30,11,12,19.10
2009,07,30,11,13,19.10
2009,07,30,11,14,19.10
2009,07,30,11,15,19.10
2009,07,30,11,16,19.20
2009,07,30,11,17,19.20
2009,07,30,11,18,19.30
2009,07,30,11,19,19.40
2009,07,30,11,20,19.50
2009,07,30,11,21,19.60
2009,07,30,11,22,19.60
2009,07,30,11,23,19.70
2009,07,30,11,24,19.70
2009,07,30,11,25,19.80
2009,07,30,11,26,20.00
2009,07,30,11,27,20.10
2009,07,30,11,28,20.20
2009,07,30,11,29,20.20
2009,07,30,11,30,20.30
2009,07,30,11,31,20.40
2009,07,30,11,32,20.50
2009,07,30,11,33,20.70
2009,07,30,11,34,20.70
2009,07,30,11,35,20.80
2009,07,30,11,36,21.00
2009,07,30,11,37,21.20
2009,07,30,11,38,21.30
2009,07,30,11,39,21.30
2009,07,30,11,40,21.40
2009,07,30,11,41,21.50
2009,07,30,11,42,21.60
2009,07,30,11,43,21.60
2009,07,30,11,44,21.60
2009,07,30,11,45,21.60
2009,07,30,11,46,21.60
2009,07,30,11,47,21.70
2009,07,30,11,48,21.80
2009,07,30,11,49,21.90
2009,07,30,11,50,22.00
2009,07,30,11,51,22.10
2009,07,30,11,52,22.10
2009,07,30,11,53,22.20
2009,07,30,11,54,22.20
2009,07,30,11,55,22.40
2009,07,30,11,56,22.50
2009,07,30,11,57,22.60
2009,07,30,11,58,22.80
2009,07,30,11,59,22.90
2009,07,30,12,00,23.00
2009,07,30,12,01,23.20
2009,07,30,12,02,23.40
2009,07,30,12,03,23.50
2009,07,30,12,04,23.70
2009,07,30,12,05,23.70
2009,07,30,12,06,23.70
2009,07,30,12,07,23.70
2009,07,30,12,08,23.70
2009,07,30,12,09,23.70
2009,07,30,12,10,23.70
2009,07,30,12,11,23.70
2009,07,30,12,12,23.80
2009,07,30,12,13,23.80
2009,07,30,12,14,23.90
2009,07,30,12,15,24.00
2009,07,30,12,16,24.10
2009,07,30,12,17,24.30
2009,07,30,12,18,24.50
2009,07,30,12,19,24.60
2009,07,30,12,20,24.70
2009,07,30,12,21,24.80
2009,07,30,12,22,24.90
2009,07,30,12,23,25.10
2009,07,30,12,24,25.30
2009,07,30,12,25,25.60
2009,07,30,12,26,25.80
2009,07,30,12,27,26.00
2009,07,30,12,28,26.10
2009,07,30,12,29,26.30
2009,07,30,12,30,26.40
2009,07,30,12,31,26.40
2009,07,30,12,32,26.60
2009,07,30,12,33,26.50
2009,07,30,12,34,26.40
2009,07,30,12,35,26.30
2009,07,30,12,36,26.30
2009,07,30,12,37,26.30
2009,07,30,12,38,26.40
2009,07,30,12,39,26.40
2009,07,30,12,40,26.40
2009,07,30,12,41,26.40
2009,07,30,12,42,26.40
2009,07,30,12,43,26.40
2009,07,30,12,44,26.40
2009,07,30,12,45,26.40
2009,07,30,12,46,26.40
2009,07,30,12,47,26.30
2009,07,30,12,48,26.20
2009,07,30,12,49,26.10
2009,07,30,12,50,26.00
2009,07,30,12,51,25.90
2009,07,30,12,52,25.80
2009,07,30,12,53,25.70
2009,07,30,12,54,25.60
2009,07,30,12,55,25.60
2009,07,30,12,56,25.60
2009,07,30,12,57,25.60
2009,07,30,12,58,25.70
2009,07,30,12,59,25.80
2009,07,30,13,00,25.80
2009,07,30,13,01,25.80
2009,07,30,13,02,25.80
2009,07,30,13,03,25.80
2009,07,30,13,04,25.80
2009,07,30,13,05,25.80
2009,07,30,13,06,25.90
2009,07,30,13,07,26.10
2009,07,30,13,08,26.20
2009,07,30,13,09,26.30
2009,07,30,13,10,26.40
2009,07,30,13,11,26.60
2009,07,30,13,12,26.70
2009,07,30,13,13,26.70
2009,07,30,13,14,26.70
2009,07,30,13,15,26.70
2009,07,30,13,16,26.60
2009,07,30,13,17,26.50
2009,07,30,13,18,26.40
2009,07,30,13,19,26.00
2009,07,30,13,20,25.80
2009,07,30,13,21,25.50
2009,07,30,13,22,25.10
2009,07,30,13,23,24.80
2009,07,30,13,24,24.50
2009,07,30,13,25,24.20
2009,07,30,13,26,24.10
2009,07,30,13,27,24.10
2009,07,30,13,28,24.10
2009,07,30,13,29,24.20
2009,07,30,13,30,24.20
2009,07,30,13,31,24.20
2009,07,30,13,32,24.10
2009,07,30,13,33,24.10
2009,07,30,13,34,24.10
2009,07,30,13,35,24.00
2009,07,30,13,36,23.90
2009,07,30,13,37,23.90
2009,07,30,13,38,23.80
2009,07,30,13,39,23.80
2009,07,30,13,40,23.70
2009,07,30,13,41,23.70
2009,07,30,13,42,23.80
2009,07,30,13,43,23.90
2009,07,30,13,44,24.00
2009,07,30,13,45,24.10
2009,07,30,13,46,24.20
2009,07,30,13,47,24.30
2009,07,30,13,48,24.40
2009,07,30,13,49,24.50
2009,07,30,13,50,24.60
2009,07,30,13,51,24.70
2009,07,30,13,52,24.80
2009,07,30,13,53,24.80
2009,07,30,13,54,24.80
2009,07,30,13,55,24.90
2009,07,30,13,56,24.90
2009,07,30,13,57,25.00
2009,07,30,13,58,25.10
2009,07,30,13,59,25.30
2009,07,30,14,00,25.40
2009,07,30,14,01,25.60
2009,07,30,14,02,25.70
2009,07,30,14,03,25.80
2009,07,30,14,04,25.80
2009,07,30,14,05,25.90
2009,07,30,14,06,26.10
2009,07,30,14,07,26.30
2009,07,30,14,08,26.40
2009,07,30,14,09,26.60
2009,07,30,14,10,26.60
2009,07,30,14,11,26.70
2009,07,30,14,12,26.70
2009,07,30,14,13,26.80
2009,07,30,14,14,26.90
2009,07,30,14,15,27.10
2009,07,30,14,16,27.20
2009,07,30,14,17,27.30
2009,07,30,14,18,27.30
2009,07,30,14,19,27.40
2009,07,30,14,20,27.40
2009,07,30,14,21,27.40
2009,07,30,14,22,27.40
2009,07,30,14,23,27.40
2009,07,30,14,24,27.40
2009,07,30,14,25,27.30
2009,07,30,14,26,27.30
2009,07,30,14,27,27.20
2009,07,30,14,28,27.20
2009,07,30,14,29,27.10
2009,07,30,14,30,27.00
2009,07,30,14,31,26.90
2009,07,30,14,32,26.80
2009,07,30,14,33,26.80
2009,07,30,14,34,26.80
2009,07,30,14,35,26.80
2009,07,30,14,36,26.90
2009,07,30,14,37,26.90
2009,07,30,14,38,26.90
2009,07,30,14,39,26.90
2009,07,30,14,40,26.90
2009,07,30,14,41,26.90
2009,07,30,14,42,26.90
2009,07,30,14,43,26.90
2009,07,30,14,44,27.00
2009,07,30,14,45,27.10
2009,07,30,14,46,27.10
2009,07,30,14,47,27.20
2009,07,30,14,48,27.30
2009,07,30,14,49,27.30
2009,07,30,14,50,27.40
2009,07,30,14,51,27.50
2009,07,30,14,52,27.60
2009,07,30,14,53,27.70
2009,07,30,14,54,27.80
2009,07,30,14,55,27.90
2009,07,30,14,56,27.90
2009,07,30,14,57,27.90
2009,07,30,14,58,28.00
2009,07,30,14,59,28.20
2009,07,30,15,00,28.20
2009,07,30,15,01,28.20
2009,07,30,15,02,28.30
2009,07,30,15,03,28.30
2009,07,30,15,04,28.00
2009,07,30,15,05,27.80
2009,07,30,15,06,27.60
2009,07,30,15,07,27.40
2009,07,30,15,08,27.30
2009,07,30,15,09,27.20
2009,07,30,15,10,27.10
2009,07,30,15,11,27.20
2009,07,30,15,12,27.10
2009,07,30,15,13,27.20
2009,07,30,15,14,27.30
2009,07,30,15,15,27.50
2009,07,30,15,16,27.90
2009,07,30,15,17,28.20
2009,07,30,15,18,28.50
2009,07,30,15,19,28.80
2009,07,30,15,20,29.10
2009,07,30,15,21,29.30
2009,07,30,15,22,29.50
2009,07,30,15,23,29.60
2009,07,30,15,24,29.80
2009,07,30,15,25,29.80
2009,07,30,15,26,30.00
2009,07,30,15,27,30.10
2009,07,30,15,28,30.20
2009,07,30,15,29,30.40
2009,07,30,15,30,30.70
2009,07,30,15,31,30.90
2009,07,30,15,32,31.10
2009,07,30,15,33,31.10
2009,07,30,15,34,31.10
2009,07,30,15,35,31.10
2009,07,30,15,36,31.10
2009,07,30,15,37,31.20
2009,07,30,15,38,31.20
2009,07,30,15,39,31.20
2009,07,30,15,40,31.20
2009,07,30,15,41,31.20
2009,07,30,15,42,31.30
2009,07,30,15,43,31.30
2009,07,30,15,44,31.20
2009,07,30,15,45,31.20
2009,07,30,15,46,31.30
2009,07,30,15,47,31.30
2009,07,30,15,48,31.30
2009,07,30,15,49,31.40
2009,07,30,15,50,31.40
2009,07,30,15,51,31.40
2009,07,30,15,52,31.50
2009,07,30,15,53,31.60
2009,07,30,15,54,31.70
2009,07,30,15,55,31.90
2009,07,30,15,56,31.90
2009,07,30,15,57,31.90
2009,07,30,15,58,31.90
2009,07,30,15,59,31.80
2009,07,30,16,00,31.80
2009,07,30,16,01,31.90
2009,07,30,16,02,31.90
2009,07,30,16,03,31.90
2009,07,30,16,04,31.90
2009,07,30,16,05,31.80
2009,07,30,16,06,31.70
2009,07,30,16,07,31.50
2009,07,30,16,08,31.30
2009,07,30,16,09,31.20
2009,07,30,16,10,31.10
2009,07,30,16,11,31.00
2009,07,30,16,12,31.00
2009,07,30,16,13,31.00
2009,07,30,16,14,31.00
2009,07,30,16,15,31.00
2009,07,30,16,16,31.10
2009,07,30,16,17,31.10
2009,07,30,16,18,31.00
2009,07,30,16,19,31.00
2009,07,30,16,20,31.00
2009,07,30,16,21,31.00
2009,07,30,16,22,30.90
2009,07,30,16,23,30.90
2009,07,30,16,24,30.80
2009,07,30,16,25,30.80
2009,07,30,16,26,30.70
2009,07,30,16,27,30.60
2009,07,30,16,28,30.50
2009,07,30,16,29,30.40
2009,07,30,16,30,30.40
2009,07,30,16,31,30.30
2009,07,30,16,32,30.10
2009,07,30,16,33,30.00
2009,07,30,16,34,29.80
2009,07,30,16,35,29.80
2009,07,30,16,36,29.80
2009,07,30,16,37,29.80
2009,07,30,16,38,29.80
2009,07,30,16,39,29.80
2009,07,30,16,40,29.90
2009,07,30,16,41,29.90
2009,07,30,16,42,30.10
2009,07,30,16,43,30.10
2009,07,30,16,44,30.20
2009,07,30,16,45,30.20
2009,07,30,16,46,30.20
2009,07,30,16,47,30.20
2009,07,30,16,48,30.10
2009,07,30,16,49,30.20
2009,07,30,16,50,30.20
2009,07,30,16,51,30.20
2009,07,30,16,52,30.20
2009,07,30,16,53,30.20
2009,07,30,16,54,30.30
2009,07,30,16,55,30.30
2009,07,30,16,56,30.20
2009,07,30,16,57,30.10
2009,07,30,16,58,30.10
2009,07,30,16,59,30.00
2009,07,30,17,00,29.90
2009,07,30,17,01,29.90
2009,07,30,17,02,29.90
2009,07,30,17,03,29.90
2009,07,30,17,04,29.80
2009,07,30,17,05,29.80
2009,07,30,17,06,29.80
2009,07,30,17,07,29.90
2009,07,30,17,08,29.90
2009,07,30,17,09,29.90
2009,07,30,17,10,29.90
2009,07,30,17,11,29.90
2009,07,30,17,12,30.00
2009,07,30,17,13,30.10
2009,07,30,17,14,30.10
2009,07,30,17,15,30.10
2009,07,30,17,16,30.10
2009,07,30,17,17,30.10
2009,07,30,17,18,30.20
2009,07,30,17,19,30.20